Tracking 29892 objects as of 21-Nov-2024
HD Live streaming from Space Station
objects crossing your sky now

STARLINK-3775

Track STARLINK-3775 now!
10-day predictions
STARLINK-3775 is classified as:


NORAD ID: 52285
Int'l Code: 2022-041AA
Perigee: 546.0 km
Apogee: 547.8 km
Inclination: 53.2 °
Period: 95.4 minutes
Semi major axis: 6917 km
RCS: Unknown
Launch date: April 21, 2022
Source: United States (US)
Launch site: AIR FORCE EASTERN TEST RANGE (AFETR)
Your satellite tracking list
Your tracking list is empty




NASA's NSSDC Master Catalog

Two Line Element Set (TLE):
1 52285U 22041AA  24325.31525590  .00001036  00000-0  83176-4 0  9996
2 52285  53.2162  78.6688 0001274  99.7595 260.3541 15.08840865142759
Source of the keplerian elements: AFSPC